Regional Weather Roundup
Issued by NWS

Home | Current Version | Previous Version | Text Only | Print | Product List | Glossary Off
Versions: 1 2 3 4 5 6 7 8 9 10 11 12 13 14 15 16 17 18 19 20 21 22 23 24 25 26 27 28 29 30 31 32 33 34 35 36 37 38 39 40 41 42 43 44 45 46 47 48 49 50

000
ASUS45 KCYS 271510
RWRWY

WYOMING REGIONAL WEATHER ROUNDUP
NATIONAL WEATHER SERVICE CHEYENNE WY
900 AM MDT MON APR 27 2015

NOTE:  "FAIR" INDICATES FEW OR NO CLOUDS BELOW 12,000 FEET
WITH NO SIGNIFICANT WEATHER AND/OR OBSTRUCTIONS TO VISIBILITY.

WYZ001-271600-
YELLOWSTONE NATIONAL PARK

CITY           SKY/WX    TMP DP  RH WIND       PRES   REMARKS
LK YELLOWSTONE   N/A     31  24  75 SE6       30.32R WCI  25
W YELLOWSTONE  NOT AVBL

$$
WYZ002>013-054>058-071-098>099-271600-
NORTHERN WYOMING

CITY           SKY/WX    TMP DP  RH WIND       PRES   REMARKS
JACKSON        SUNNY     39  30  70 N9        30.28R WCI  33
CODY           CLOUDY    39  32  75 N3        30.33R
GREYBULL       CLOUDY    39  35  86 CALM      30.34R
WORLAND        CLOUDY    39  34  82 SE3       30.34R
SHERIDAN       CLOUDY    40  35  83 CALM      30.35R
BUFFALO        CLOUDY    37  34  89 N6        30.32R WCI  32
GILLETTE       CLOUDY    36  34  92 N7        30.32R WCI  30
HULETT         LGT SNOW  36  34  93 N6        30.34R WCI  31
NEWCASTLE      LGT RAIN  37  37 100 NW8       30.29R WCI  31

$$
WYZ014>020-022>026-101>103-271600-
CENTRAL WYOMING

CITY           SKY/WX    TMP DP  RH WIND       PRES   REMARKS
BIG PINEY      CLOUDY    40  29  64 CALM      30.26R
PINEDALE       CLOUDY    37  34  87 NW3       30.27R
DUBOIS         FLURRIES  32  32 100 SE8       30.28R WCI  25
LANDER         LGT RAIN  36  35  96 CALM      30.30R FOG
RIVERTON       LGT RAIN  37  33  85 CALM      30.32R
CASPER         CLOUDY    34  32  92 N8        30.31R WCI  27
DOUGLAS        LGT RAIN  37  35  92 NW9       30.30R WCI  30

$$
WYZ021-027>030-104>119-271600-
SOUTHERN WYOMING

CITY           SKY/WX    TMP DP  RH WIND       PRES   REMARKS
EVANSTON       CLOUDY    36  32  85 N9        30.26R WCI  29
KEMMERER       CLOUDY    36  34  93 SW5       30.26R WCI  32
FORT BRIDGER   CLOUDY    37  37 100 W3        30.30R
ROCK SPRINGS   CLOUDY    36  32  85 NE15      30.27R WCI  27
DIXON          PTSUNNY   42  37  84 E3        30.22R
RAWLINS        CLOUDY    36  32  85 NE12      30.24R WCI  28
SARATOGA       CLOUDY    37  36  93 CALM      30.23R
LARAMIE        CLOUDY    37  32  82 NE8       30.23R WCI  31
CHEYENNE       CLOUDY    37  35  92 CALM      30.25R FOG
TORRINGTON     CLOUDY    45  42  89 E3        30.26R
PINE BLUFFS    CLOUDY    39  39 100 NE3       30.25R FOG

$$


USA.gov is the U.S. government's official web portal to all federal, state and local government web resources and services.